Regional Weather Roundup
Issued by NWS

Home | Current Version | Previous Version | Graphics & Text | Print | Product List | Glossary On
Versions: 1 2 3 4 5 6 7 8 9 10 11 12 13 14 15 16 17 18 19 20 21 22 23 24 25 26 27 28 29 30 31 32 33 34 35 36 37 38 39 40 41 42 43 44 45 46 47 48 49 50
198
ASUS45 KSLC 220710
RWRUT

UTAH REGIONAL WEATHER ROUNDUP
NATIONAL WEATHER SERVICE SALT LAKE CITY UT
1200 AM MST THU FEB 22 2018

UTZ001>011-023>025-220800-

NORTHERN UTAH

CITY           SKY/WX    TMP DP  RH WIND       PRES   REMARKS
BRIGHAM CITY     N/A     17  11  75 CALM      30.08S
HILL AFB       PTCLDY    17   5  59 SE17      30.04S WCI   1
LOGAN            N/A      6  -1  73 CALM      30.07F HAZE
OGDEN          MOCLDY    17   6  62 S7        30.05S WCI   8
SALT LAKE CITY MOCLDY    21  11  65 SE6       30.06S WCI  13
TOOELE VALLEY    N/A     18   9  68 S14       30.06S WCI   4
WENDOVER         N/A     15   5  64 CALM      30.05F
HEBER CITY       N/A      5   1  85 CALM      30.01S
WEST JORDAN      N/A     17   9  71 SW8       30.05S WCI   6

$$

UTZ011>015-024>027-220800-

CENTRAL/NORTHEAST UTAH

CITY           SKY/WX    TMP DP  RH WIND       PRES   REMARKS
PROVO AIRPORT  MOCLDY    14   9  80 E6        30.08F WCI   5
MOAB/CANYONLAN   N/A     29  23  78 SE6       30.02S WCI  23
DELTA            N/A     10   9  92 NE3       30.05F
PRICE            N/A     15   2  56 NE6       29.98F WCI   6
RICHFIELD      CLOUDY    21  19  93 CALM      30.04
VERNAL         CLOUDY    18  10  71 N5        30.05S WCI  11

$$

UTZ013>016-019>022-027-220800-

SOUTHERN UTAH

CITY           SKY/WX    TMP DP  RH WIND       PRES   REMARKS
BRYCE CANYON   CLOUDY    12  10  92 W7        29.97S WCI   1
CEDAR CITY       N/A     18  14  84 S3        30.00F
MILFORD          N/A     10   6  84 W5        30.04S WCI   2
ST GEORGE        N/A     34  19  54 CALM      30.09S
HANKSVILLE       N/A     28   5  37 MISG      30.05S
BLANDING         N/A     27  20  76 CALM      30.06F

$$

REGIONAL REPORTS     COLORADO/ARIZONA

CITY           SKY/WX    TMP DP  RH WIND       PRES   REMARKS
CRAIG, CO      CLOUDY    14   7  73 CALM      30.02S
GRAND JUNCTION LGT SNOW  27  27 100 W3        30.04S FOG
RIFLE, CO      LGT SNOW  25  18  74 NE3       30.01R
MONTROSE, CO   CLOUDY    25  23  92 N5        30.04R WCI  19
CORTEZ, CO     CLOUDY    28  28 100 CALM      30.01S
COLORADO CITY    N/A     23  18  80 SE5       30.06F WCI  17
PAGE, AZ       CLOUDY    37  17  44 W3        30.02F
GRAND CANYON     N/A     13   9  84 CALM      30.00F
KINGMAN, AZ      N/A     28   8  43 S9        30.08S WCI  19
FLAGSTAFF, AZ    N/A     20   1  43 S6        29.99S WCI  12

$$

REGIONAL REPORTS    NEVADA/IDAHO/WYOMING

CITY           SKY/WX    TMP DP  RH WIND       PRES   REMARKS
LAS VEGAS, NV    N/A     41  14  33 S3        30.09S
ELY, NY          N/A     14  10  84 SE9       29.97F WCI   2
ELKO, NV         N/A     11   8  88 S5        30.00S WCI   3
POCATELLO, ID    N/A     19   8  62 NE3       30.02F
BURLEY, ID       N/A     18   7  62 S7        30.00F WCI   9
EVANSTON, WY     N/A      2  -4  76 E10       29.95F WCI -14
ROCK SPRINGS,  MOCLDY     5  -2  72 CALM      30.00F

$$




USA.gov is the U.S. government's official web portal to all federal, state and local government web resources and services.